Aérodrome :
LOGIN :

S'inscrire | Disclaimer

   EN    FR    IT 

 










Légende :    VFR   VFR Marginal   IFR   IFR Intensif   IFR Très Intensif
Visi : 
Plafond : 
>= 8 km
>= 3000ft
5 à 8 km
1000 à 3000 ft
1500m à 5 km
500 à 1000 ft
800 à 1500m
200 à 500 ft
< 800m
< 200 ft
Symboles :   Orages  Brouillard  Fortes neiges  Fortes précipitations  Vent > 20 kt
SIGMETs :   Divers  Orages  Givrage  Turbulence  Onde Orograph.  Cendres Volcan.







- Altitude de l'aérodrome : 13 ft
- Code IATA : LYX
- Voir les cartes d'approche


EGMD - Lydd

DERNIER METAR :
  • 230820Z 25014KT 9999 FEW022 18/13 Q1017

METARs EXPIRÉS :
  • 230750Z 24011KT 9999 SCT016 18/13 Q1017
  • 230720Z 26013KT 9999 SCT014 BKN020 17/13 Q1017
  • 230650Z AUTO 27012KT 9999 BKN012/// 16/13 Q1016
  • 230620Z AUTO 25012KT 9999 BKN010/// 15/13 Q1016
  • 230550Z AUTO 25011KT 9999 FEW001/// 15/13 Q1016

TAF TAF EGMD
Valide du 23 à 09h jusqu'au 23 à 18h UTC


230801Z 2309/2318 24010KT 9999 FEW030
BECMG 2309/2312 24020KT
PROB30
TEMPO 2312/2318 24022G32KT
ATIS : +44 1797 322 422
Pas de NOTAMs connus pour ce terrain.



MET'MAP, la Météo Aéronautique d'un coup d'oeil ! - Copyright ORBIFLY Décembre 2007 - Disclaimer

ORBIFLY MET'MAP TEAM :

Programmation & Développement : Alexandra Zaïnal
Conception & Développement : Baudouin d'Aumeries
Co-Programmation & Développement : Marc-Olivier Méhu
Soutien technique & logistique : Manuel Goepfert

Contact : metmap@orbifly.com




SOURCES & CREDITS :

   NOAA